Temperature
9 9 9 10 10 10 10 10 10 10 12 12 11 11 11 13 13 13 14 15 16 17 17 18 18 18 18 18 18 18 18 18 18 17 17 17 17 16 16 15 14 14 14 13
8 8 9 10 10 10 10 10 10 10 11 11 9 10 10 11 12 13 14 15 15 16 17 17 17 18 18 18 18 18 18 18 18 17 17 17 17 17 17 16 15 14 14 13
9 9 10 10 10 10 10 10 10 9 9 9 9 9 9 10 11 13 13 14 15 15 16 17 17 17 17 17 18 18 18 18 18 17 17 17 17 16 16 15 15 14 14 13
9 10 10 10 10 10 9 9 10 9 8 6 7 7 8 8 9 11 12 14 15 16 16 16 17 17 17 17 17 17 17 17 17 17 17 17 17 16 16 16 16 15 14 14
9 9 10 9 10 10 9 9 9 8 7 6 6 6 7 7 8 10 11 14 16 17 17 17 17 17 17 17 17 17 17 17 17 17 17 17 17 17 17 16 16 15 15 14
9 10 10 9 10 10 9 8 7 6 5 4 5 5 6 6 9 10 11 15 16 17 17 17 17 16 16 16 16 16 16 16 16 16 16 16 16 16 16 16 15 15 14 13
8 8 9 9 8 9 8 6 5 5 4 5 6 5 6 8 9 9 10 13 15 16 16 16 16 16 16 16 16 16 16 16 16 16 16 16 16 16 16 16 16 15 14 13
6 6 8 8 8 7 7 6 5 6 5 5 6 6 7 9 10 11 12 13 14 14 14 14 15 15 15 15 15 15 15 15 15 15 15 15 15 16 16 16 15 15 15 14
5 6 8 8 8 8 7 6 6 5 4 4 5 5 7 10 11 11 11 12 12 13 13 13 13 13 14 14 14 14 15 15 15 15 15 14 14 15 15 15 15 14 14 13
6 6 7 8 8 8 7 6 4 4 4 5 5 5 7 9 10 9 9 10 11 12 12 12 12 12 12 13 13 13 14 14 14 14 14 14 14 14 14 15 14 14 13 12
8 6 7 7 6 6 7 7 5 4 4 4 4 7 8 9 9 9 9 10 11 11 10 10 11 11 11 12 12 13 13 13 13 13 13 13 13 13 13 14 13 13 12 11
8 6 5 6 7 7 6 6 5 4 4 4 4 6 9 8 8 9 10 10 10 10 9 9 9 10 10 10 11 12 12 12 12 13 12 12 12 12 13 13 12 11 11 10
8 6 4 5 6 6 6 6 6 5 4 3 4 6 9 8 9 10 10 9 9 8 8 8 8 8 9 9 10 11 11 11 11 12 11 11 11 11 12 11 11 10 10 9
8 5 4 6 6 6 6 6 6 5 4 4 5 6 8 9 9 10 9 8 7 7 7 7 7 8 8 8 9 9 10 10 10 10 10 10 10 11 11 10 10 9 9 7
7 5 4 5 6 6 6 6 6 5 5 5 6 7 8 9 9 9 7 6 6 6 6 6 6 7 7 7 8 8 8 9 8 8 8 8 9 9 9 9 8 7 6 5
6 5 6 5 6 6 5 6 6 6 7 7 7 7 9 9 9 7 5 4 4 4 5 5 5 6 6 6 7 7 7 7 6 6 6 6 6 6 6 6 5 4 3 3
5 5 5 5 6 6 6 7 7 7 7 7 7 8 9 9 8 5 3 3 3 3 3 4 4 5 5 5 5 5 5 5 5 4 4 3 4 4 4 3 3 2 2 2
5 5 5 6 6 6 8 9 8 8 8 8 8 8 8 8 6 3 2 1 1 2 2 3 3 3 3 3 4 3 3 3 3 2 1 1 2 2 2 2 2 1 1 2
6 6 6 6 6 6 8 9 9 8 8 8 8 8 8 7 5 4 2 1 1 1 1 2 2 2 2 2 2 2 2 1 1 0 -0 0 1 1 1 1 1 1 1 1
7 7 6 6 7 7 9 10 10 9 8 9 8 7 7 6 6 5 2 1 1 0 1 1 1 1 1 1 1 1 0 -0 -0 -0 -0 0 1 1 1 1 1 1 1 0
6 6 6 6 7 7 8 9 9 9 9 10 8 7 6 5 5 3 2 1 1 0 0 0 1 1 0 0 0 0 0 -0 -0 0 0 1 1 1 1 1 0 -0 -0 -1
7 7 7 7 7 7 9 10 9 9 10 8 7 7 6 4 3 3 2 1 1 1 0 0 0 0 0 0 1 1 0 0 1 1 1 1 1 1 0 -0 -0 -1 -1 -1
6 7 7 7 8 9 10 10 10 10 8 7 6 6 5 4 3 3 2 2 2 1 1 1 1 1 1 1 2 2 1 1 1 1 1 0 -0 -0 -1 -1 -1 -1 -1 -1
7 8 7 7 7 8 10 10 10 9 8 7 6 6 5 4 4 3 3 2 2 2 2 3 3 2 2 2 2 2 2 1 1 1 0 -0 -0 -1 -1 -1 -1 -2 -2 -2
7 8 7 7 8 9 9 10 10 9 8 7 6 5 5 4 3 3 3 3 3 3 3 3 3 3 2 2 2 2 1 1 1 0 -0 -1 -1 -1 -1 -2 -2 -2 -2 -2
5 6 7 7 8 9 9 10 10 9 8 7 6 5 4 4 4 3 3 3 3 3 3 3 3 3 2 2 2 1 1 0 0 -0 -1 -1 -1 -1 -2 -2 -2 -2 -2 -3
Wind_Speed
6 5 8 11 8 5 5 3 5 6 5 6 7 10 13 12 11 13 14 14 14 15 14 11 11 10 10 9 9 12 14 16 15 11 12 12 13 12 11 9 13 16 17 18
5 4 6 7 6 4 3 4 5 5 4 4 8 13 13 15 14 16 19 19 18 15 13 12 11 10 9 9 9 10 13 14 15 15 15 12 12 9 10 9 10 16 18 19
6 4 7 7 5 5 4 4 4 5 7 6 7 11 8 9 9 13 16 17 17 18 17 15 12 12 10 10 10 9 11 14 15 14 9 6 4 3 4 7 10 12 17 18
4 2 6 7 5 5 3 2 2 3 5 6 4 8 9 8 11 11 11 10 13 14 14 13 12 11 11 11 10 9 10 12 13 14 13 15 12 10 9 10 9 11 13 15
5 4 5 6 4 5 5 4 5 4 3 5 3 6 11 7 9 12 11 11 12 12 11 11 11 11 10 8 8 8 8 10 11 14 16 18 12 9 6 8 10 10 9 11
3 2 4 5 4 5 7 6 6 5 4 5 6 7 9 6 8 8 9 9 9 10 9 9 8 6 6 5 5 5 6 7 10 14 16 18 16 13 12 12 12 11 8 8
3 2 2 4 6 4 6 5 3 4 2 7 5 5 10 13 12 11 12 11 10 8 7 7 7 6 6 5 4 4 4 6 8 12 14 16 17 19 19 17 15 14 11 8
6 3 4 3 5 6 6 7 6 4 4 6 5 7 9 12 10 8 7 7 8 8 7 7 7 7 6 5 4 4 4 5 7 10 13 13 14 14 13 15 15 15 13 10
6 2 2 4 4 7 6 5 5 3 2 5 7 8 10 7 3 5 8 9 9 9 9 9 8 7 7 5 5 5 5 5 7 9 10 11 13 13 14 14 12 10 9 9
6 5 3 4 4 2 4 6 5 4 1 5 7 6 5 6 6 7 7 7 8 9 10 11 9 7 7 6 5 5 5 6 7 8 10 11 13 13 14 14 15 13 12 13
3 6 4 4 5 7 5 4 4 4 4 3 6 8 7 6 5 6 7 9 11 14 14 13 11 8 7 7 6 5 5 5 6 7 9 11 12 12 14 14 15 14 13 16
3 5 3 3 3 7 6 6 7 4 5 4 4 9 8 7 7 8 12 15 16 16 15 14 12 9 7 7 6 6 6 6 6 7 9 12 13 14 14 14 14 15 16 15
5 5 3 2 2 3 4 6 7 5 3 5 5 10 5 6 13 16 19 19 18 17 16 14 10 9 8 7 6 6 5 6 5 7 10 12 13 14 14 14 15 15 16 15
5 4 5 6 4 5 5 6 9 8 5 6 10 17 21 20 21 19 16 16 15 14 13 11 9 8 7 5 4 4 5 3 2 6 9 11 12 13 14 14 15 15 15 15
5 4 5 6 6 5 8 9 10 13 11 10 12 16 25 24 21 15 13 14 14 14 12 10 7 5 4 2 2 4 4 4 5 7 8 9 11 13 15 15 15 15 14 15
5 4 1 4 5 7 8 12 13 14 16 18 22 25 22 16 10 9 11 13 14 14 12 9 5 4 3 2 3 5 7 8 10 11 11 11 13 15 16 16 16 16 15 15
5 5 2 4 5 4 7 10 12 8 9 11 15 12 11 15 12 6 9 12 12 12 11 8 6 6 6 7 8 9 10 11 13 13 13 13 15 17 17 18 18 16 15 14
7 6 3 3 4 5 5 3 7 8 10 12 11 12 12 12 4 3 5 9 10 10 9 8 8 8 9 10 11 12 13 14 14 14 14 14 16 18 17 17 16 14 12 11
6 6 3 2 4 7 8 5 5 6 8 8 8 10 9 7 1 1 5 7 7 7 7 7 8 9 10 11 11 14 14 14 15 14 14 14 15 16 16 15 13 11 11 10
5 5 3 3 3 5 5 3 2 2 6 5 6 8 7 5 3 3 5 6 7 7 7 7 8 10 10 10 11 13 13 13 13 13 13 13 13 14 14 13 11 9 9 8
6 5 6 6 5 7 8 5 3 1 5 4 5 6 4 3 2 1 3 4 5 6 7 8 9 9 9 9 10 12 12 11 11 12 12 13 13 13 12 10 8 8 8 7
8 6 6 6 6 8 5 2 4 7 5 4 4 3 4 5 5 4 4 3 4 5 6 7 8 8 8 8 10 12 11 10 10 12 13 12 11 10 9 9 8 7 7 7
8 8 6 8 9 6 3 5 4 2 4 4 3 4 7 7 5 5 4 4 4 5 6 6 8 9 8 8 9 11 9 10 11 12 12 11 10 9 8 8 8 6 6 5
4 5 4 5 8 8 7 5 3 4 4 4 3 5 7 7 7 7 6 6 5 6 6 6 7 9 8 8 9 9 9 9 11 11 10 9 9 8 7 6 6 5 4 4
5 2 3 6 8 7 4 5 5 4 3 1 2 5 8 9 8 7 7 7 7 6 6 6 7 8 9 8 8 8 8 9 11 10 9 8 7 7 6 5 4 4 3 4
5 6 6 7 7 5 6 5 5 5 5 4 4 5 7 8 8 8 7 7 8 8 7 7 8 8 8 8 8 7 7 8 10 9 7 6 5 5 5 4 4 6 4 6
Wind_Direction
138 146 176 182 182 165 150 173 246 262 319 330 279 271 271 274 271 265 264 261 258 258 260 261 253 245 244 244 223 209 205 205 198 192 191 191 194 192 190 187 177 171 166 163
114 160 159 160 192 230 237 264 274 288 329 327 288 280 266 257 252 248 252 256 256 256 263 261 255 249 238 239 234 218 211 208 202 199 196 195 193 192 188 176 170 170 167 167
132 168 166 164 181 191 189 208 246 292 336 353 330 296 270 275 263 256 249 249 251 251 253 255 253 249 245 243 240 231 216 211 207 201 189 160 123 103 145 170 175 175 172 170
127 140 145 158 174 156 148 73 118 41 18 317 3 302 290 284 295 282 270 261 256 255 252 250 249 250 247 247 246 241 229 216 206 197 187 178 180 183 186 182 175 171 171 171
155 160 136 149 152 137 145 104 81 71 53 326 263 246 284 297 281 279 278 273 266 260 252 250 247 244 248 251 251 248 237 223 208 199 194 191 189 179 159 156 159 165 168 169
109 120 138 142 109 115 123 66 46 52 60 292 232 207 281 265 249 283 300 293 277 267 257 250 249 243 249 256 256 251 238 228 209 201 199 195 185 164 156 161 167 168 165 165
105 53 73 103 100 80 97 89 26 344 305 257 231 222 255 258 261 266 287 297 296 284 264 252 243 228 227 234 243 243 230 231 214 204 203 200 188 175 174 173 174 171 171 172
143 193 201 144 145 147 144 139 170 223 252 290 283 241 256 263 278 286 298 315 330 325 308 286 263 244 231 230 228 237 235 235 219 208 205 199 187 180 179 176 174 177 178 172
147 182 123 149 121 128 141 170 166 129 316 285 277 286 295 283 319 354 358 359 348 335 324 309 294 280 263 251 240 235 237 239 227 211 201 192 183 178 175 173 167 163 154 151
133 128 133 118 94 64 135 145 115 135 223 285 289 273 258 289 324 335 338 337 326 325 320 309 300 288 276 270 266 260 244 235 232 214 198 189 181 175 169 165 164 160 155 152
104 118 138 133 175 179 155 159 151 153 175 224 289 275 230 247 277 291 304 311 313 308 302 295 290 281 274 279 276 272 269 253 232 207 189 174 168 163 163 166 164 158 152 152
151 116 143 221 239 180 171 180 155 169 232 216 247 273 265 269 278 289 305 308 305 300 295 286 278 275 273 275 282 281 275 257 232 199 175 167 160 158 161 161 157 152 150 150
137 117 99 15 319 186 202 195 186 172 180 207 228 264 287 310 307 306 307 307 304 300 295 286 276 272 273 272 283 294 290 271 234 180 163 157 157 157 155 151 148 146 143 141
122 123 169 180 189 176 204 203 191 187 212 236 236 265 289 298 301 305 309 311 309 305 303 295 283 279 279 281 295 318 324 306 194 153 150 150 151 145 140 138 137 136 135 135
116 161 213 246 238 212 217 220 206 208 216 238 260 271 283 293 300 309 320 321 318 318 316 311 305 298 302 317 355 12 12 35 86 105 113 118 119 120 121 121 121 120 121 120
116 148 226 284 266 232 240 237 228 233 238 247 263 276 278 284 302 319 333 331 327 326 327 325 328 352 13 35 61 65 63 64 79 88 93 101 108 110 109 108 107 106 105 105
148 144 182 277 302 320 264 231 208 210 216 223 247 258 288 306 318 336 338 334 330 332 340 353 17 36 50 62 73 77 78 80 84 89 94 99 104 102 102 102 100 99 100 99
145 148 184 282 325 258 247 234 190 216 242 231 245 268 289 300 309 63 357 339 340 347 0 22 43 55 59 66 74 80 84 86 89 92 95 97 99 99 99 99 98 98 99 99
153 158 196 253 283 280 283 240 201 224 272 241 241 271 290 309 220 115 16 1 358 5 25 41 54 66 72 75 82 87 87 90 93 94 95 96 99 101 101 100 99 100 102 101
165 157 194 226 263 259 258 256 174 153 283 248 240 272 291 319 303 322 17 14 18 28 41 55 62 70 75 79 87 90 91 92 93 95 95 94 96 98 99 101 102 104 109 116
179 193 213 227 250 268 256 258 129 239 271 274 247 255 257 228 206 110 57 39 37 45 52 62 70 71 73 81 90 92 92 93 96 96 94 92 92 96 100 102 107 113 112 107
184 192 198 196 219 253 260 204 208 241 281 291 267 218 179 149 127 117 95 72 58 61 64 68 74 70 67 78 91 92 89 92 95 96 95 94 95 99 104 105 100 97 100 99
198 197 192 202 221 242 260 246 259 256 276 280 259 190 154 149 153 138 120 105 89 82 79 77 81 77 68 71 88 95 95 99 99 97 96 95 91 89 93 97 98 91 91 100
243 196 206 246 261 262 259 244 243 242 252 272 242 173 160 157 154 145 133 121 109 98 95 95 93 89 83 81 85 97 104 103 101 98 93 91 91 86 80 83 91 98 105 110
246 221 226 255 276 292 266 231 231 229 219 215 151 160 160 152 154 151 141 133 125 113 105 101 102 102 99 97 95 94 97 102 99 94 92 88 87 91 85 82 94 114 129 134
224 204 207 237 240 235 257 239 207 206 207 187 153 142 151 156 152 143 138 133 129 123 116 111 109 110 106 102 96 90 92 102 108 105 98 97 98 98 99 99 81 76 85 77
Height
1475 1480 1481 1482 1485 1488 1491 1493 1495 1492 1486 1485 1483 1480 1475 1470 1469 1467 1465 1463 1462 1460 1460 1462 1464 1466 1467 1469 1471 1473 1475 1478 1482 1485 1488 1490 1491 1494 1496 1499 1502 1506 1508 1511
1477 1480 1480 1481 1485 1487 1490 1493 1494 1491 1487 1486 1484 1478 1470 1465 1462 1459 1458 1456 1454 1454 1454 1456 1458 1460 1461 1462 1464 1466 1467 1470 1473 1476 1480 1483 1485 1487 1490 1493 1497 1501 1504 1507
1474 1477 1478 1481 1484 1487 1489 1492 1492 1492 1489 1487 1487 1477 1468 1458 1453 1451 1449 1447 1447 1447 1447 1448 1451 1453 1455 1456 1458 1459 1460 1463 1466 1469 1473 1476 1479 1482 1485 1488 1491 1494 1498 1502
1474 1474 1476 1480 1483 1485 1490 1490 1490 1492 1497 1500 1496 1492 1470 1462 1454 1446 1443 1442 1441 1441 1442 1443 1445 1447 1448 1450 1452 1453 1454 1455 1458 1461 1463 1466 1468 1472 1475 1479 1483 1488 1492 1496
1475 1475 1477 1481 1482 1483 1489 1490 1492 1495 1500 1504 1500 1501 1475 1465 1458 1446 1440 1439 1438 1438 1438 1439 1440 1441 1443 1444 1445 1446 1447 1448 1450 1453 1455 1458 1461 1465 1469 1474 1478 1482 1486 1490
1474 1475 1477 1479 1481 1483 1487 1492 1496 1502 1507 1513 1500 1502 1484 1469 1455 1446 1440 1438 1436 1436 1436 1436 1437 1437 1438 1439 1439 1439 1440 1441 1442 1445 1447 1450 1454 1457 1462 1466 1471 1475 1479 1483
1478 1479 1479 1479 1483 1486 1489 1500 1511 1512 1515 1508 1493 1493 1479 1457 1450 1447 1444 1440 1437 1435 1434 1434 1434 1433 1433 1434 1434 1434 1434 1435 1436 1438 1440 1444 1447 1450 1455 1459 1464 1468 1471 1475
1484 1486 1481 1480 1483 1488 1491 1498 1509 1508 1510 1503 1489 1486 1467 1450 1446 1444 1442 1439 1436 1435 1433 1432 1431 1430 1429 1429 1429 1429 1429 1430 1431 1432 1434 1437 1441 1444 1448 1453 1457 1461 1464 1469
1482 1484 1480 1480 1482 1486 1492 1498 1500 1507 1510 1510 1495 1481 1462 1446 1444 1443 1440 1438 1436 1435 1433 1431 1428 1427 1426 1424 1424 1424 1425 1425 1426 1427 1428 1430 1433 1437 1442 1447 1451 1455 1458 1463
1474 1482 1480 1481 1483 1486 1489 1494 1503 1511 1515 1506 1494 1484 1469 1450 1446 1444 1442 1439 1436 1434 1431 1429 1426 1423 1421 1420 1419 1419 1419 1419 1420 1421 1421 1423 1426 1430 1435 1440 1444 1448 1452 1457
1470 1481 1483 1483 1487 1488 1490 1493 1497 1505 1509 1508 1502 1475 1453 1448 1446 1444 1441 1438 1435 1432 1428 1424 1421 1419 1417 1415 1414 1413 1414 1414 1414 1414 1415 1416 1419 1423 1428 1433 1438 1442 1447 1451
1470 1479 1486 1486 1483 1483 1486 1489 1495 1506 1507 1505 1503 1474 1446 1445 1443 1441 1438 1434 1430 1426 1421 1417 1414 1412 1410 1409 1409 1408 1408 1408 1408 1408 1409 1410 1413 1417 1422 1427 1432 1437 1442 1447
1469 1479 1492 1490 1490 1486 1485 1486 1488 1493 1498 1502 1497 1469 1443 1442 1440 1437 1434 1429 1424 1419 1414 1409 1406 1405 1404 1403 1403 1403 1402 1402 1402 1402 1403 1405 1408 1412 1417 1422 1428 1433 1437 1442
1469 1478 1488 1484 1482 1481 1483 1482 1484 1489 1493 1490 1480 1460 1444 1440 1436 1432 1428 1424 1419 1414 1408 1404 1401 1399 1398 1397 1397 1397 1397 1397 1397 1397 1398 1400 1403 1407 1413 1418 1424 1429 1434 1439
1469 1479 1481 1481 1478 1478 1479 1478 1478 1481 1480 1480 1466 1457 1443 1437 1433 1429 1425 1420 1415 1410 1405 1401 1398 1396 1394 1393 1393 1393 1393 1393 1393 1394 1395 1397 1400 1404 1410 1415 1421 1426 1432 1437
1470 1477 1478 1478 1473 1474 1475 1471 1471 1471 1469 1466 1460 1452 1439 1433 1430 1426 1423 1419 1415 1410 1405 1401 1398 1395 1393 1392 1391 1391 1391 1391 1391 1392 1394 1396 1399 1402 1408 1413 1419 1425 1431 1438
1472 1476 1478 1477 1473 1472 1468 1457 1459 1459 1455 1455 1452 1443 1434 1430 1427 1426 1423 1420 1416 1411 1406 1401 1398 1395 1393 1392 1391 1391 1391 1392 1392 1393 1394 1397 1400 1404 1409 1414 1421 1428 1435 1442
1470 1475 1477 1474 1473 1471 1454 1445 1447 1449 1446 1444 1440 1436 1433 1430 1427 1425 1423 1420 1415 1411 1407 1403 1400 1397 1396 1394 1393 1393 1393 1393 1393 1395 1397 1401 1404 1408 1413 1420 1426 1433 1439 1445
1465 1470 1472 1471 1470 1464 1450 1444 1443 1445 1442 1436 1436 1433 1430 1427 1426 1425 1422 1419 1416 1412 1409 1406 1403 1401 1399 1398 1397 1396 1396 1397 1398 1400 1403 1407 1411 1415 1420 1426 1432 1437 1442 1446
1464 1466 1470 1468 1466 1462 1447 1439 1438 1443 1441 1433 1432 1430 1428 1427 1426 1426 1422 1419 1416 1413 1411 1408 1406 1405 1403 1403 1402 1402 1402 1403 1405 1408 1411 1415 1418 1422 1426 1431 1436 1440 1444 1448
1463 1465 1465 1464 1462 1456 1443 1438 1440 1445 1438 1430 1429 1427 1426 1426 1426 1425 1422 1420 1418 1415 1413 1412 1410 1409 1408 1408 1408 1407 1409 1410 1412 1415 1418 1421 1424 1428 1432 1436 1440 1444 1447 1450
1456 1458 1458 1459 1459 1455 1436 1436 1438 1436 1430 1427 1426 1424 1424 1423 1424 1424 1423 1422 1420 1418 1417 1415 1414 1413 1413 1413 1413 1414 1415 1417 1419 1421 1424 1427 1431 1434 1438 1441 1444 1447 1450 1452
1450 1449 1449 1450 1446 1436 1434 1433 1432 1430 1428 1425 1423 1422 1422 1422 1423 1423 1423 1423 1422 1421 1420 1419 1419 1418 1418 1419 1420 1420 1422 1424 1426 1428 1431 1433 1436 1439 1443 1446 1448 1450 1452 1453
1443 1441 1443 1442 1437 1433 1431 1430 1429 1427 1425 1423 1421 1420 1420 1421 1422 1423 1424 1424 1424 1424 1424 1424 1424 1424 1424 1426 1427 1428 1429 1431 1433 1434 1437 1439 1441 1444 1446 1448 1450 1451 1452 1453
1440 1438 1439 1437 1433 1430 1428 1427 1426 1424 1422 1420 1419 1419 1419 1420 1421 1422 1423 1424 1425 1426 1427 1427 1428 1429 1429 1431 1432 1434 1435 1437 1438 1440 1441 1444 1446 1447 1449 1450 1451 1452 1452 1451
1437 1437 1437 1435 1429 1429 1426 1425 1423 1421 1420 1418 1418 1418 1418 1419 1420 1422 1423 1424 1426 1427 1429 1430 1431 1432 1433 1435 1437 1438 1440 1442 1443 1444 1445 1447 1448 1449 1450 1451 1451 1451 1450 1449